Location: G�kdere
(37.0328°N, 30.9000°E)
Time: 21:37:51
(UTC+00:00)

Cosmos 1707 Rocket - Pass Details

Date: 03 March 2021
Orbit: 604 x 632 km, 82.5° (Epoch: 18 April)

Event Time Altitude Azimuth Distance (km) Brightness Sun altitude
Rises 16:22:33 0° 352° (N) 2,895 7.1 -6.8°
Reaches altitude 10° 16:24:47 10° 352° (N) 1,980 6.2 -7.2°
Maximum altitude 16:29:10 86° 267° (W) 617 3.6 -8.1°
Drops below altitude 10° 16:33:30 10° 176° (S) 1,951 6.1 -9.0°
Sets 16:35:41 0° 176° (S) 2,847 6.9 -9.4°
